OpenBCM V1.13 (Linux)

Packet Radio Mailbox

DB0FHN

[JN59NK Nuernberg]

 Login: GUEST





  
I0OJJ  > KEPS     29.01.26 02:33l 330 Lines 15637 Bytes #999 (0) @ AMSAT
BID : ORB26029.1
Read: OE5RCO DJ6UX GUEST
Subj: 2Line Orbital Elements 26029.AMSAT
Path: DB0FHN<DB0RKB<DK0WUE<ZL2BAU<N2NOV<I0OJJ<I0OJJ
Sent: 260129/0021z @:I0OJJ.ITA.EU [Rome] obcm1.13-38-g65b7

>From i0ojj%i0ojj.ita.eu@i0ojj.ampr.org Thu Jan 29 01:21:07 2026
Received: from i0ojj.ampr.org by i0ojj.ampr.org (JNOS2.0q) with SMTP
	id AA17051798 ; Thu, 29 Jan 2026 01:21:07 +0100
Message-Id: <ORB26029.1@i0ojj.bbs>
>From: i0ojj@i0ojj.ita.eu
X-JNOS-User-Port: Telnet   (i0ojj @ 44.134.109.10)  -> Sending message

From: I0OJJ @ I0OJJ.ITA.EU (Gustavo)
To:   KEPS @ AMSAT
X-Info: This message was generated automatically


QST de W1STR

AMSAT Orbital Elements for Amateur Satellites in TLE Format
>From Orbital Analysis Office
New England Sci-Tech STEM Education Center
Natick MA January 29, 2026
To all radio amateurs


These element sets describe the orbits of various satellites 
in use by the amateur radio community. For details see:
www.amsat.org/keplerian-elements-formats/

A daily update of element sets is available at:
www.amsat.org/tle/daily-bulletin.txt
or without bulletin text:
www.amsat.org/tle/dailytle.txt


AO-07
1 07530U 74089B   26027.95015348 -.00000018  00000-0  18022-3 0  9991
2 07530 101.9969  39.7040 0012325  39.9184  75.5228 12.53695388342943
UO-11
1 14781U 84021B   26027.85474398  .00003219  00000-0  33662-3 0  9999
2 14781  97.7872 355.1896 0006144 294.1776  65.8799 14.90342632236224
AO-27
1 22825U 93061C   26027.66068859  .00000221  00000-0  10123-3 0  9998
2 22825  98.7072  95.0214 0009005 147.1267 213.0478 14.30898046686904
FO-29
1 24278U 96046B   26027.61389522  .00000010  00000-0  43308-4 0  9994
2 24278  98.5432 255.5795 0350908 101.1161 262.9641 13.53265872454151
GO-32
1 25397U 98043D   26027.92807932  .00000160  00000-0  89182-4 0  9996
2 25397  98.9971  17.2186 0000305 234.2429 125.8720 14.24393418431361
ISS
1 25544U 98067A   26027.85330490  .00010035  00000-0  19486-3 0  9999
2 25544  51.6319 274.2218 0011165  36.9017 323.2737 15.48232561550007
NO-44
1 26931U 01043C   26027.34796412  .00000289  00000-0  13887-3 0  9991
2 26931  67.0490 248.5311 0007108 266.9439  93.0850 14.31887460270284
SO-50
1 27607U 02058C   26027.87870383  .00002306  00000-0  29071-3 0  9991
2 27607  64.5516 202.9703 0073996 288.0368  71.2685 14.82607849243651
CO-55
1 27844U 03031E   26027.74720380  .00000619  00000-0  28722-3 0  9990
2 27844  98.6771  38.0594 0008750 229.4594 130.5824 14.24228800171686
CO-57
1 27848U 03031J   26025.97897264  .00000556  00000-0  26357-3 0  9995
2 27848  98.6800  36.1404 0008455 255.2958 104.7284 14.23527635171146
RS-22
1 27939U 03042A   26027.98551812  .00002232  00000-0  35455-3 0  9999
2 27939  98.3398 208.4261 0011348 359.3107 151.8692 14.73128624194903
CO-58
1 28895U 05043F   26027.86874504  .00002840  00000-0  45897-3 0  9993
2 28895  98.2757 180.7446 0013230 292.3266  67.6538 14.72123285 81101
CO-65
1 32785U 08021C   26027.90705843  .00008763  00000-0  57686-3 0  9998
2 32785  97.8135   6.6887 0010401 136.9346 223.2697 15.07742137964044
CO-66
1 32791U 08021J   26027.93031883  .00024792  00000-0  92996-3 0  9997
2 32791  97.7479  19.7400 0005610  86.1026 274.0854 15.27211543965846
RS-30
1 32953U 08025A   26027.90523624  .00000053  00000-0  30955-3 0  9998
2 32953  82.5007  82.7079 0018339 256.1634 103.7405 12.43174276802265
SRMSAT
1 37841U 11058D   26027.77423133  .00000541  00000-0  14990-3 0  9991
2 37841  19.9702 189.3425 0011780  98.9793  44.8421 14.11531225737956
ZACUBE-1
1 39417U 13066B   26027.83989271  .00011002  00000-0  87853-3 0  9992
2 39417  97.8126 349.4803 0041845   0.4213 359.7038 14.99746884659681
Delfi-N3xt
1 39428U 13066N   26027.73915077  .00015290  00000-0  13968-2 0  9994
2 39428  97.8351 308.3996 0076663 314.8493  44.6514 14.92880938653650
GOMX-1
1 39430U 13066Q   26027.95600669  .00005303  00000-0  80429-3 0  9990
2 39430  97.6587 237.1982 0129875 167.2396 193.2151 14.68901255649328
LO-74
1 39440U 13066AA  26027.80687600  .00007209  00000-0  68383-3 0  9997
2 39440  97.8756 336.4500 0060395 131.3526 229.2910 14.92466538656043
AO-73
1 39444U 13066AE  26027.88549531  .00013150  00000-0  86772-3 0  9993
2 39444  97.8116 356.7787 0036860 323.6752  36.1973 15.07022607658516
DTUSAT-2
1 40030U 14033W   26027.85715218  .00013334  00000-0  76465-3 0  9997
2 40030  98.0796  16.9635 0008353   6.6083 353.5255 15.12684649631453
EO-80
1 40032U 14033Y   26027.46774141  .00013468  00000-0  77010-3 0  9991
2 40032  98.0683  15.8832 0006072 303.8391  56.2259 15.12800244631370
LILACSAT-2
1 40908U 15049K   26027.96421964  .00021771  00000-0  44032-3 0  9992
2 40908  97.4873  59.8122 0009036  51.3613 308.8444 15.46434117574042
Horyu-4
1 41340U 16012D   26026.21998329  .00083066  00000-0  11410-2 0  9993
2 41340  30.9947   3.4457 0004047 308.3989  51.6299 15.55929722548471
Lapan A3
1 41603U 16040E   26027.94597457  .00005253  00000-0  17214-3 0  9995
2 41603  97.1453  28.8408 0011425 149.2165 210.9750 15.32000447533333
CAS-2T
1 41847U 16066G   26027.69614334  .00002948  00000-0  42305-3 0  9996
2 41847  98.3967 104.9830 0342984 195.5188 163.5279 14.44304837484513
TechnoSat
1 42829U 17042E   26027.44699925  .00006912  00000-0  50444-3 0  9992
2 42829  97.4089 190.7059 0017297 210.2441 149.7789 15.03869603465545
AO-91
1 43017U 17073E   26027.85214383  .00012353  00000-0  56472-3 0  9995
2 43017  97.4912 258.0216 0159598  92.0852 269.8662 15.09943526444191
S-Net D
1 43186U 18014G   26027.66749292  .00009416  00000-0  50647-3 0  9993
2 43186  97.5475 293.4049 0009529 135.4178 224.7822 15.15043738437475
S-Net B
1 43187U 18014H   26027.28002586  .00010209  00000-0  54915-3 0  9994
2 43187  97.5477 293.0025 0010261 133.5518 226.6568 15.15009485437413
S-Net A
1 43188U 18014J   26027.27073115  .00009956  00000-0  53517-3 0  9994
2 43188  97.5486 293.1770 0010146 133.8389 226.3683 15.15043184437412
S-Net C
1 43189U 18014K   26027.67945913  .00009774  00000-0  52577-3 0  9996
2 43189  97.5502 293.6355 0011727 127.2903 232.9400 15.15008828436023
Ten-Koh
1 43677U 18084G   26027.74612394  .00004523  00000-0  34855-3 0  9993
2 43677  98.0716 214.2384 0008643 227.3645 132.6851 15.02141834395073
PO-101
1 43678U 18084H   26027.95981164  .00003600  00000-0  29641-3 0  9993
2 43678  98.1100 218.3193 0007334 257.0250 103.0154 14.99756900395195
QO-100
1 43700U 18090A   26027.93096969  .00000151  00000-0  00000-0 0  9997
2 43700   0.0179  75.7478 0002039 267.1116 145.2578  1.00270120 26271
MinXSS-2
1 43758U 18099A   26027.68646649  .00038950  00000-0  10558-2 0  9996
2 43758  97.4720 100.7493 0009546  56.3645 303.8509 15.37493344392471
AO-95
1 43770U 18099N   26027.60182865  .00017373  00000-0  73457-3 0  9991
2 43770  97.4605  88.5672 0010500 119.4327 240.7959 15.23233935391794
SNUSat 2
1 43782U 18099AA  26027.58100476  .00013246  00000-0  62892-3 0  9995
2 43782  97.4288  83.2162 0012171  70.9982 289.2570 15.19301286391667
SnugLite
1 43784U 18099AC  26027.57700104  .00017972  00000-0  75166-3 0  9998
2 43784  97.4100  83.4321 0004314  74.6811 285.4903 15.23636746391882
ITASat 1
1 43786U 18099AE  26027.62309015  .00011853  00000-0  60214-3 0  9992
2 43786  97.4260  81.9864 0014439 119.9873 240.2796 15.16942153391586
EAGLET 1
1 43790U 18099AJ  26027.91726985  .00005797  00000-0  34380-3 0  9993
2 43790  97.4456  81.2666 0012928 108.5055 251.7581 15.11667713391139
ESEO
1 43792U 18099AL  26027.93337462  .00003635  00000-0  26879-3 0  9998
2 43792  97.4177  71.2233 0013213  91.8442 268.4297 15.03721605390727
JO-97
1 43803U 18099AX  26027.60028207  .00023837  00000-0  85546-3 0  9991
2 43803  97.4349  90.3060 0007160  57.4153 302.7777 15.28664073392114
Suomi 100
1 43804U 18099AY  26027.87995607  .00017130  00000-0  69210-3 0  9997
2 43804  97.4415  89.0070 0011842  60.0465 300.1947 15.24757227392013
ISAT
1 43879U 18111D   26027.75609358  .00062400  00000-0  12616-2 0  9993
2 43879  97.5902 314.4409 0009182  90.4513 269.7788 15.46211510389342
UWE-4
1 43880U 18111E   26027.76606207  .00038403  00000-0  10508-2 0  9990
2 43880  97.5852 310.6597 0011821 103.9169 256.3390 15.37182509389148
Sparrow
1 43881U 18111F   26027.34209073  .00078183  00000-0  14316-2 0  9995
2 43881  97.6096 318.0620 0007423 111.6705 248.5337 15.49027818389412
Prox-1
1 44339U 19036A   26027.91078625  .00017764  00000-0  19189-2 0  9992
2 44339  23.9969 328.6316 0006995 213.0572 146.9490 14.86681389352547
Taurus 1
1 44530U 19059C   26027.93407722  .00014477  00000-0  24132-2 0  9998
2 44530  98.6250 184.3719 0008583  32.3030 327.8699 14.70075799338025
TO-108
1 44881U 19093C   26027.95528531  .00001847  00000-0  21593-3 0  9995
2 44881  97.7689 103.5418 0013472 182.4484 177.6668 14.86237140330589
FloripaSat 1
1 44885U 19093G   26027.95600804  .00009055  00000-0  69381-3 0  9999
2 44885  97.7916 121.3671 0011729 176.4624 183.6685 15.02023040331585
RS-44
1 44909U 19096E   26027.59395939  .00000012  00000-0 -28920-5 0  9990
2 44909  82.5182  73.1366 0218555 113.0164 249.4149 12.79746728284361
SALSAT
1 46495U 20068K   26027.93342221  .00012360  00000-0  46412-3 0  9999
2 46495  97.8822  22.7396 0012227  76.5264 283.7335 15.27287803293939
CSS (TIANHE-1)
1 48274U 21035A   26027.86833263  .00025117  00000-0  29086-3 0  9996
2 48274  41.4671  96.2532 0009507  17.8784 342.2387 15.61194867271235
CUTE
1 49263U 21088D   26027.68988474  .00044489  00000-0  48736-3 0  9994
2 49263  97.4287 117.7084 0004765 100.8515 259.3280 15.63139695240466
TeikyoSat 4
1 49396U 21102B   26027.82813876  .00003870  00000-0  24877-3 0  9996
2 49396  97.3858  62.6910 0013646  60.4011 299.8576 15.08905371231550
Z-Sat
1 49399U 21102E   26027.95981286  .00007060  00000-0  35936-3 0  9997
2 49399  97.3537  67.5136 0017676  22.3216 337.8783 15.16976533232171
KOSEN 1
1 49402U 21102H   26027.53186671  .00012491  00000-0  50882-3 0  9992
2 49402  97.3419  72.4805 0013968 351.3109   8.7884 15.24527976232571
